(326844) = 2003 UJ116

Discovered at Socorro on 2003-10-21 by LINEAR.

Orbit

Orbit type: Main Belt

Note: WebGL enabled browser required.

epoch2023-02-25.0
epoch JD2460000.5
perihelion date2020-01-16.85375
perihelion JD2458865.35375
argument of perihelion (°)321.88191
ascending node (°)41.54897
inclination (°)18.70826
eccentricity0.1320119
perihelion distance (AU)2.7132462
Tisserand w.r.t. Jupiter3.1
ΔV w.r.t. Earth (km/sec)11.8
semimajor axis (AU)3.1259026
mean anomaly (°)202.43821
mean daily motion (°/day)0.17833670
aphelion distance (AU)3.539
period (years)5.53
P-vector [x]0.97657563
P-vector [y]0.15605784
P-vector [z]-0.14814179
Q-vector [x]-0.03227379
Q-vector [y]0.78691789
Q-vector [z]0.61621314
absolute magnitude15.87
phase slope0.15
uncertainty0
referenceMPO 745323
observations used213
oppositions11
arc length (days)7177
first opposition used2003
last opposition used2023
residual rms (arc-secs)0.73
perturbers coarse indicatorM-v
perturbers precise indicator003Ek
first observation date used2003-09-28.0
last observation date used2023-05-23.0
computer nameMPCLINUX
JD of orbit computation2456966.750982
perihelion JD uncertainty (days)2.5214E-04
argument of perihelion uncertainty (°)5.4622E-05
ascending node uncertainty (°)2.3651E-05
inclination uncertainty (°)2.1461E-05
eccentricity uncertainty 1.6587E-07
perihelion distance uncertainty (AU)5.1940E-07
Minimum Orbit Intersection Distances (in AU)
for orbit epoch: 2460000.5, reference: E2023-KC5
Mercury2.35358
Venus1.99588
Earth1.73576
Mars1.31722
Jupiter1.96798
Saturn6.0611
Uranus15.0136
Neptune27.0786

Observations

218 total observations over interval: 2003 09 28.30997 – 2023 05 23.300686
These data are available for download (format description).

Date (UT) J2000 RA J2000 Dec Magn Location Ref
2003 09 28.30997 02 38 53.13 +08 01 59.7 20.1   704 – Lincoln Laboratory ETS, New Mexico MPS 92773
2003 09 28.32289 02 38 52.66 +08 02 02.2 20.0   704 – Lincoln Laboratory ETS, New Mexico MPS 92773
2003 09 28.33580 02 38 52.18 +08 02 03.5 20.4   704 – Lincoln Laboratory ETS, New Mexico MPS 92773
2003 10 21.28865 02 19 52.28 +08 47 54.5 19.0   704 – Lincoln Laboratory ETS, New Mexico MPS 89727
2003 10 21.30069 02 19 51.54 +08 47 55.2 19.6   704 – Lincoln Laboratory ETS, New Mexico MPS 89727
2003 10 21.31292 02 19 50.80 +08 47 57.6 19.3   704 – Lincoln Laboratory ETS, New Mexico MPS 89727
2003 10 21.32463 02 19 50.06 +08 47 58.9 19.5   704 – Lincoln Laboratory ETS, New Mexico MPS 89727
2003 10 21.33633 02 19 49.31 +08 47 59.1 19.6   704 – Lincoln Laboratory ETS, New Mexico MPS 89727
2003 10 22.26115 02 18 53.98 +08 49 47.0 19.7 V 691 – Steward Observatory, Kitt Peak-Spacewatch MPS 89727
2003 10 22.28806 02 18 52.31 +08 49 50.1 19.5 V 691 – Steward Observatory, Kitt Peak-Spacewatch MPS 89727
2003 10 22.31662 02 18 50.54 +08 49 53.6 19.6 V 691 – Steward Observatory, Kitt Peak-Spacewatch MPS 89727
2003 10 24.29674 02 16 50.58 +08 53 49.1 18.9   704 – Lincoln Laboratory ETS, New Mexico MPS 90623
2003 10 24.30970 02 16 49.71 +08 53 49.8 19.2   704 – Lincoln Laboratory ETS, New Mexico MPS 90623
2003 10 24.32254 02 16 48.88 +08 53 50.7 19.1   704 – Lincoln Laboratory ETS, New Mexico MPS 90623
2003 10 24.33566 02 16 48.07 +08 53 51.5 19.0   704 – Lincoln Laboratory ETS, New Mexico MPS 90623
2003 10 24.34800 02 16 47.31 +08 53 55.6 19.7   704 – Lincoln Laboratory ETS, New Mexico MPS 90623
2003 10 28.25945 02 12 47.92 +09 01 49.0 19.1   704 – Lincoln Laboratory ETS, New Mexico MPS 90623
2003 10 28.27181 02 12 47.17 +09 01 51.1 19.4   704 – Lincoln Laboratory ETS, New Mexico MPS 90623
2003 10 28.28426 02 12 46.35 +09 01 52.5 19.1   704 – Lincoln Laboratory ETS, New Mexico MPS 90623
2003 10 28.29688 02 12 45.59 +09 01 54.2 19.5   704 – Lincoln Laboratory ETS, New Mexico MPS 90623
2003 10 28.31018 02 12 44.83 +09 01 55.0 19.9   704 – Lincoln Laboratory ETS, New Mexico MPS 90623
2003 11 01.27810 02 08 42.37 +09 10 23.0 20.0   704 – Lincoln Laboratory ETS, New Mexico MPS 90623
2003 11 01.29017 02 08 41.51 +09 10 25.6 19.7   704 – Lincoln Laboratory ETS, New Mexico MPS 90623
2003 11 01.30223 02 08 40.76 +09 10 27.1 19.7   704 – Lincoln Laboratory ETS, New Mexico MPS 90623
2003 11 28.07764 01 46 23.66 +10 27 40.1 20.7 V 691 – Steward Observatory, Kitt Peak-Spacewatch MPS 91884
2003 11 28.10781 01 46 22.60 +10 27 46.9 20.5 V 691 – Steward Observatory, Kitt Peak-Spacewatch MPS 91884
2003 11 28.13692 01 46 21.64 +10 27 53.3 20.9 V 691 – Steward Observatory, Kitt Peak-Spacewatch MPS 91884
2008 08 26.60215 23 22 42.74 -33 18 44.8 20.0 V E12 – Siding Spring Survey MPS 291704
2008 08 26.61240 23 22 42.16 -33 18 47.4 20.1 V E12 – Siding Spring Survey MPS 291704
2008 08 26.62208 23 22 41.62 -33 18 49.3 19.6 V E12 – Siding Spring Survey MPS 291704
2008 08 26.63155 23 22 41.05 -33 18 51.4 19.9 V E12 – Siding Spring Survey MPS 291704
2008 09 02.58910 23 16 06.96 -33 36 11.4 20.6 V E12 – Siding Spring Survey MPS 291704
2008 09 02.60329 23 16 06.20 -33 36 14.0 19.9 V E12 – Siding Spring Survey MPS 291704
2008 09 02.61030 23 16 05.70 -33 36 14.1 20.1 V E12 – Siding Spring Survey MPS 291704
2008 09 25.62107 22 54 40.64 -32 59 53.1 20.3 V E12 – Siding Spring Survey MPS 291704
2008 09 25.63036 22 54 40.21 -32 59 50.7 20.3 V E12 – Siding Spring Survey MPS 291704
2008 09 25.63961 22 54 39.74 -32 59 48.9 20.1 V E12 – Siding Spring Survey MPS 291704
2008 09 25.64884 22 54 39.20 -32 59 46.4 20.2 V E12 – Siding Spring Survey MPS 291704
2010 02 28.46248 04 43 08.90 +38 38 47.3   C51 – WISE MPS 334833
2010 02 28.59478 04 43 15.27 +38 38 37.2   C51 – WISE MPS 334833
2010 02 28.727088 04 43 21.37 +38 38 28.4   C51 – WISE MPS 334833
2010 02 28.859392 04 43 27.66 +38 38 18.1   C51 – WISE MPS 334833
2010 02 28.859520 04 43 27.576 +38 38 17.92   C51 – WISE MPS 904071
2010 02 28.925608 04 43 31.01 +38 38 13.9   C51 – WISE MPS 334833
2010 02 28.991824 04 43 34.32 +38 38 08.7   C51 – WISE MPS 334833
2010 03 01.058039 04 43 37.579 +38 38 02.65   C51 – WISE MPS 904071
2010 03 01.12413 04 43 40.81 +38 37 59.7   C51 – WISE MPS 334833
2010 03 01.190344 04 43 43.87 +38 37 54.5   C51 – WISE MPS 334833
2010 03 01.322648 04 43 50.333 +38 37 46.27   C51 – WISE MPS 904071
2010 03 01.454951 04 43 57.058 +38 37 36.08   C51 – WISE MPS 904071
2010 03 01.587256 04 44 03.42 +38 37 28.9   C51 – WISE MPS 334833
2012 03 29.31991 14 21 42.63 -07 38 27.4 21.0 V 691 – Steward Observatory, Kitt Peak-Spacewatch MPS 418440
2012 03 29.33760 14 21 41.89 -07 38 26.8 21.1 V 691 – Steward Observatory, Kitt Peak-Spacewatch MPS 418440
2012 03 29.35534 14 21 41.17 -07 38 26.1 21.1 V 691 – Steward Observatory, Kitt Peak-Spacewatch MPS 418440
2012 04 27.40073 13 58 17.335 -07 16 39.12 20.4 i F51 – Pan-STARRS 1, Haleakala MPS 422818
2012 04 27.41211 13 58 16.735 -07 16 38.74 20.3 i F51 – Pan-STARRS 1, Haleakala MPS 422818
2012 04 28.40024 13 57 25.759 -07 16 09.70 20.2 i F51 – Pan-STARRS 1, Haleakala MPS 422818
2012 04 28.41169 13 57 25.177 -07 16 09.70 19.7 i F51 – Pan-STARRS 1, Haleakala MPS 422818
2012 06 12.19676 13 31 04.90 -08 04 01.0 21.4 V G96 – Mt. Lemmon Survey MPS 427269
2012 06 12.20247 13 31 04.80 -08 04 01.9 21.5 V G96 – Mt. Lemmon Survey MPS 427269
2012 06 12.20824 13 31 04.76 -08 04 02.7 21.3 V G96 – Mt. Lemmon Survey MPS 427269
2012 06 12.21404 13 31 04.65 -08 04 03.6 21.5 V G96 – Mt. Lemmon Survey MPS 427269
2014 10 02.44722 02 20 26.841 +05 17 04.34 19.7 w F51 – Pan-STARRS 1, Haleakala MPS 538724
2014 10 02.45911 02 20 26.275 +05 17 05.28 19.7 w F51 – Pan-STARRS 1, Haleakala MPS 538724
2014 10 02.47098 02 20 25.713 +05 17 06.33 19.7 w F51 – Pan-STARRS 1, Haleakala MPS 538724
2014 10 02.48289 02 20 25.150 +05 17 07.25 19.7 w F51 – Pan-STARRS 1, Haleakala MPS 538724
2014 10 13.35272 02 11 04.65 +05 32 14.4 19.1 V 703 – Catalina Sky Survey MPS 540341
2014 10 13.36174 02 11 04.21 +05 32 15.6 19.3 V 703 – Catalina Sky Survey MPS 540341
2014 10 13.38292 02 11 02.97 +05 32 16.6 19.0 V 703 – Catalina Sky Survey MPS 540341
2014 10 18.35116 02 06 14.88 +05 39 48.2 18.9 V G96 – Mt. Lemmon Survey MPS 542076
2014 10 18.35640 02 06 14.57 +05 39 48.9 18.9 V G96 – Mt. Lemmon Survey MPS 542076
2014 10 18.36162 02 06 14.25 +05 39 49.4 18.9 V G96 – Mt. Lemmon Survey MPS 542076
2014 10 18.36685 02 06 13.93 +05 39 49.9 18.9 V G96 – Mt. Lemmon Survey MPS 542076
2014 10 21.28700 02 03 19.55 +05 44 37.0 19.4 V 703 – Catalina Sky Survey MPS 542076
2014 10 21.29151 02 03 19.30 +05 44 36.5 19.7 V 703 – Catalina Sky Survey MPS 542076
2014 10 21.29602 02 03 18.99 +05 44 37.9 19.2 V 703 – Catalina Sky Survey MPS 542076
2014 10 21.30053 02 03 18.76 +05 44 38.1 19.2 V 703 – Catalina Sky Survey MPS 542076
2014 10 23.25626 02 01 20.82 +05 48 02.5 19.6 r G45 – Space Surveillance Telescope, Atom Site MPS 558299
2014 10 23.27722 02 01 19.55 +05 48 04.9 19.4 r G45 – Space Surveillance Telescope, Atom Site MPS 558299
2014 10 23.29437 02 01 18.43 +05 48 06.3 19.5 r G45 – Space Surveillance Telescope, Atom Site MPS 558299
2014 10 23.30549 02 01 17.75 +05 48 07.6 19.5 r G45 – Space Surveillance Telescope, Atom Site MPS 558299
2014 10 24.34917 02 00 14.54 +05 50 00.8 18.9 V G96 – Mt. Lemmon Survey MPS 542076
2014 10 24.35610 02 00 14.10 +05 50 01.6 18.8 V G96 – Mt. Lemmon Survey MPS 542076
2014 10 24.36303 02 00 13.68 +05 50 02.4 18.9 V G96 – Mt. Lemmon Survey MPS 542076
2014 10 24.36996 02 00 13.26 +05 50 03.2 18.9 V G96 – Mt. Lemmon Survey MPS 542076
2014 10 25.37987 01 59 12.386 +05 51 56.72 19.3 w F51 – Pan-STARRS 1, Haleakala MPS 544120
2014 10 25.39211 01 59 11.621 +05 51 58.14 19.3 w F51 – Pan-STARRS 1, Haleakala MPS 544120
2014 10 25.40441 01 59 10.854 +05 51 59.52 19.3 w F51 – Pan-STARRS 1, Haleakala MPS 544120
2014 11 01.24451 01 52 22.71 +06 06 12.3 18.9 V G96 – Mt. Lemmon Survey MPS 544792
2014 11 01.25407 01 52 22.11 +06 06 13.7 18.9 V G96 – Mt. Lemmon Survey MPS 544792
2014 11 01.26364 01 52 21.55 +06 06 14.9 19.0 V G96 – Mt. Lemmon Survey MPS 544792
2014 11 01.27321 01 52 20.97 +06 06 16.2 19.0 V G96 – Mt. Lemmon Survey MPS 544792
